Content
SEND FEEDBACK

Daily
Averages
Monthly
Summary
United States of America

PYGA BEACH, GUAM


Home > North America > United States > Guam
Elevation: 6 meters     Latitude: 13 17N     Longitude: 144 39E

WEATHER
 
SELECT A DAY
Number of Records: 341,964;   Date Range: 1/1/95 - 7/26/14
 
SHARE

PRINT THIS DATA

[ ← Previous Day ]
WEATHER ALMANAC - 30 JANUARY, 2013
[ Next Day → ]
[ °F ]   °C
Weather ElementAverageHighLow
Temperature25.7 °C29 °C (11:55 am)24 °C (9:59 pm)
Dewpoint21.7 °C23.1 °C (9:55 pm)20 °C (12:10 am)
Humidity79.2 %94 % (9:59 pm)59 % (12:55 pm)
Barometer1013.9 hPa1015.2 hPa (9:55 am)1012.5 hPa (3:37 am)
Wind Speed23.8 km/h29.6 km/h (8:55 am)
Wind Gust44.4 km/h (9:51 pm)
Weather ElementAverage
Visibility15.1 km
Wind DirectionENE (71.4 °)

Weather ElementTotal
Precipitation2.54 mm
Cooling Degree Days8.2 (Base 18.3)
Growing Degree Days16.5 (Base 10)
Averaged from 50 records on 30 January, 2013
WEATHER CONDITIONS BREAKOUT
WIND DIRECTION BREAKOUT
WEATHER BY HOUR - 30 JANUARY, 2013
[ °F ]   °C
Local TimeTemperatureDewpointHumidityBarometerVisibilityWind DirectionWind SpeedGust SpeedPrecipitationEventsConditions
12:10 AM25 °C20 °C74 %1013.9 hPa16.1 kmEast (80°)20.4 km/hMostly Cloudy
12:20 AM25 °C20 °C74 %1013.9 hPa16.1 kmEast (80°)22.2 km/hScattered Clouds
12:55 AM24.8 °C20.3 °C76 %1013.5 hPa16.1 kmEast (80°)24.1 km/hPartly Cloudy
1:55 AM25 °C20.6 °C76 %1013.2 hPa16.1 kmEast (80°)24.1 km/hPartly Cloudy
2:28 AM25 °C21 °C78 %1013.2 hPa16.1 kmEast (90°)20.4 km/hMostly Cloudy
2:34 AM25 °C20 °C74 %1012.9 hPa16.1 kmEast (90°)24.1 km/hMostly Cloudy
2:55 AM24.9 °C20 °C74 %1012.9 hPa16.1 kmEast (80°)22.2 km/hPartly Cloudy
3:37 AM25 °C21 °C78 %1012.5 hPa16.1 kmEast (90°)18.5 km/hMostly Cloudy
3:45 AM25 °C20 °C74 %1012.5 hPa16.1 kmEast (80°)24.1 km/hScattered Clouds
3:55 AM24.7 °C20.1 °C75 %1012.5 hPa16.1 kmEast (80°)22.2 km/hScattered Clouds
4:55 AM24.7 °C20.3 °C76 %1012.9 hPa16.1 kmEast (80°)20.4 km/hPartly Cloudy
5:55 AM25 °C21.2 °C79 %1013.2 hPa16.1 kmEast (90°)18.5 km/hMostly Cloudy
5:56 AM25 °C21 °C78 %1013.2 hPa16.1 kmEast (80°)24.1 km/hMostly Cloudy
6:04 AM25 °C21 °C78 %1013.2 hPa16.1 kmEast (80°)24.1 km/h37 km/hMostly Cloudy
6:55 AM24.8 °C20.4 °C76 %1013.9 hPa16.1 kmEast (80°)20.4 km/hPartly Cloudy
7:55 AM25.9 °C20.6 °C72 %1014.2 hPa16.1 kmEast (80°)25.9 km/hScattered Clouds
8:55 AM26.9 °C20.6 °C68 %1014.9 hPa16.1 kmEast (80°)29.6 km/h38.9 km/hPartly Cloudy
9:55 AM27.7 °C20.4 °C64 %1015.2 hPa16.1 kmEast (90°)27.8 km/hPartly Cloudy
10:55 AM28.5 °C21.5 °C66 %1014.9 hPa16.1 kmEast (80°)27.8 km/hPartly Cloudy
11:55 AM29 °C21.7 °C65 %1013.9 hPa16.1 kmEast (90°)25.9 km/hPartly Cloudy
12:55 PM28.9 °C20.2 °C59 %1013.5 hPa16.1 kmEast (80°)25.9 km/hPartly Cloudy
1:55 PM28.5 °C20.8 °C63 %1012.9 hPa16.1 kmEast (100°)24.1 km/h37 km/hPartly Cloudy
2:55 PM28.2 °C21.3 °C66 %1012.5 hPa16.1 kmEast (80°)24.1 km/hPartly Cloudy
3:55 PM27.7 °C21.7 °C70 %1012.5 hPa16.1 kmENE (70°)25.9 km/hPartly Cloudy
4:55 PM27.1 °C21.5 °C71 %1012.5 hPa16.1 kmENE (70°)24.1 km/hPartly Cloudy
5:55 PM26 °C21.6 °C77 %1013.2 hPa16.1 kmENE (70°)18.5 km/hPartly Cloudy
6:09 PM26 °C22 °C78 %1013.5 hPa16.1 kmENE (60°)18.5 km/hMostly Cloudy
6:14 PM26 °C22 °C78 %1013.5 hPa16.1 kmENE (70°)22.2 km/hScattered Clouds
6:18 PM26 °C22 °C78 %1013.5 hPa16.1 kmENE (60°)20.4 km/hMostly Cloudy
6:28 PM26 °C22 °C78 %1013.5 hPa16.1 kmENE (60°)20.4 km/hMostly Cloudy
6:55 PM25.4 °C22.5 °C84 %1013.9 hPa16.1 kmNE (50°)22.2 km/hScattered Clouds
7:55 PM25.8 °C22.8 °C83 %1014.6 hPa16.1 kmENE (60°)27.8 km/hMostly Cloudy
8:55 PM25.5 °C22.8 °C85 %1014.6 hPa16.1 kmNE (50°)27.8 km/hMostly Cloudy
9:32 PM25 °C23 °C89 %1014.9 hPa11.3 kmENE (60°)25.9 km/hRainRain
9:42 PM25 °C23 °C89 %1014.9 hPa16.1 kmENE (60°)24.1 km/hMostly Cloudy
9:51 PM25 °C23 °C89 %1014.9 hPa4.8 kmENE (60°)29.6 km/h44.4 km/hRainHeavy Rain
9:53 PM25 °C23 °C89 %1014.9 hPa4 kmENE (60°)25.9 km/h44.4 km/hRainRain
9:55 PM24.4 °C23.1 °C92 %1014.9 hPa4 kmENE (60°)24.1 km/h44.4 km/h2.54 mmRainLight Rain
9:59 PM24 °C23 °C94 %1014.9 hPa4.8 kmENE (60°)25.9 km/h44.4 km/hRainLight Rain
10:03 PM25 °C23 °C89 %1014.9 hPa16.1 kmENE (60°)25.9 km/hOvercast
10:08 PM25 °C23 °C89 %1014.9 hPa16.1 kmNE (50°)25.9 km/hOvercast
10:13 PM25 °C23 °C89 %1014.9 hPa16.1 kmENE (60°)24.1 km/hMostly Cloudy
10:29 PM25 °C23 °C89 %1014.9 hPa16.1 kmENE (60°)22.2 km/hMostly Cloudy
10:55 PM24.7 °C22.5 °C87 %1014.6 hPa16.1 kmENE (70°)25.9 km/h0 mmOvercast
11:28 PM25 °C23 °C89 %1014.6 hPa16.1 kmENE (60°)22.2 km/hMostly Cloudy
11:31 PM25 °C23 °C89 %1014.6 hPa16.1 kmENE (60°)29.6 km/hMostly Cloudy
11:34 PM25 °C22 °C83 %1014.6 hPa16.1 kmENE (60°)22.2 km/hMostly Cloudy
11:38 PM25 °C23 °C89 %1014.6 hPa16.1 kmENE (60°)25.9 km/hMostly Cloudy
11:53 PM25 °C23 °C89 %1014.6 hPa16.1 kmENE (70°)20.4 km/hMostly Cloudy
11:55 PM24.9 °C22.9 °C89 %1014.2 hPa16.1 kmENE (60°)22.2 km/hMostly Cloudy
Hourly data recorded from PGUA, located 0 kilometers away from Pyga Beach, Guam







STORIES FROM OUR PARTNERS